{"data":{"norad_id":57944,"intl_designator":"2023-148K","name":"STARLINK-30708","alt_names":[],"object_type":"PAYLOAD","status":"ACTIVE","operator":null,"country":"US","launch_date":"2023-09-25","launch_site_code":"AFWTR","launch_vehicle":null,"mission":null,"orbit_class":"UNKNOWN","rcs_meters":null,"size_class":null,"mass_kg":null,"dimensions":null,"purposes":["comms"],"wikipedia_slug":null,"has_3d_model":false,"image_url":null,"decayed_at":null,"tle_current":{"epoch":"2026-05-24T21:43:27.263424Z","epoch_age_seconds":80693,"freshness":"FRESH","line1":"1 57944U 23148K   26144.90517666  .00000857  00000+0  37380-4 0  9998","line2":"2 57944  53.1615  30.1006 0000847  88.9651 271.1448 15.33551625150096","mean_motion":15.33551625,"eccentricity":8.47e-5,"inclination_deg":53.1615,"raan_deg":30.1006,"arg_perigee_deg":88.9651,"mean_anomaly_deg":271.1448,"bstar":3.738e-5,"rev_number":15009,"period_min":93.899675532606,"perigee_km":464.6463190343,"apogee_km":465.80558471835,"semimajor_km":6843.3629518763,"source":"CELESTRAK","updated_at":"2026-05-25T13:38:18.462001Z"}}}